Weather observations for the past three days for
San Bernardino Intl. Airport
Imperial (Metric)
Date Time (pdt) Wind (mph) Vis. (mi.) Weather Sky Cond. Temperature (ºF) Relative Humidity Wind Chill (°F) Heat Index (°F) Pressure Precipitation (in)
Air Dwpt 6 hour altimeter (in) sea level (mb) 1 hr 3 hr 6 hr
Max. Min.
09 12:55 W 7 10.00 Fair CLR 86 41 20% 83 29.9 0.0
09 11:55 Calm 10.00 Fair CLR 82.4 48.2 30% 81 29.92 0.0
09 10:55 Calm 7.00 Fair CLR 77 48.2 36% 78 29.93 0.0
09 09:54 Calm 7.00 Fair CLR 69.8 51.8 53% 29.94 0.0
09 08:55 Calm 5.00 Fair CLR 64.4 51.8 64% 29.95 0.0
09 07:55 Calm 5.00 Fair CLR 60.8 51.8 72% 29.95 0.0
09 06:55 Calm 5.00 Fair CLR 57.2 50 77% 29.95 0.0
09 05:41 Calm 7.00 Fair CLR 57.6 48.4 72% 29.93 0.0
09 05:20 Calm 10.00 Fair CLR 57.2 48.2 72% 29.93 0.0
09 05:00 S 3 10.00 Fair CLR 57.9 48.7 72% 29.93 0.0
09 04:40 Calm 10.00 Fair CLR 58.1 49.3 73% 29.93 0.0
09 04:20 Calm 10.00 Fair CLR 58.6 48.9 70% 29.93 0.0
09 04:00 Calm 10.00 Fair CLR 58.3 49.1 72% 29.93 0.0
09 03:40 Calm 10.00 Fair CLR 58.6 49.3 71% 29.94 0.0
09 03:20 Calm 10.00 Fair CLR 59.4 49.5 70% 29.94 0.0
09 03:00 Calm 10.00 Fair CLR 59.9 50.5 71% 29.94 0.0
09 02:40 Calm 10.00 Fair CLR 60.3 50.9 71% 29.94 0.0
09 02:20 Calm 10.00 Fair CLR 61.5 51.8 71% 29.95 0.0
09 02:00 Calm 10.00 Fair CLR 61.3 51.8 71% 29.95 0.0
09 01:40 Calm 10.00 Fair CLR 61.7 51.8 70% 29.96 0.0
09 01:20 Calm 10.00 Fair CLR 61.7 51.8 70% 29.96 0.0
09 01:00 Calm 10.00 Fair CLR 61.9 52 70% 29.96 0.0
09 00:40 Calm 10.00 Fair CLR 61.7 52 71% 29.97 0.0
09 00:20 W 3 10.00 Fair CLR 61.7 52 71% 29.97 0.0
09 00:00 W 3 10.00 Fair CLR 61.7 51.8 70% 29.97 0.0
08 23:40 W 6 10.00 Fair CLR 62.6 52 68% 29.97 0.0
08 23:20 W 5 10.00 Fair CLR 62.8 51.8 68% 29.97 0.0
08 23:00 W 5 10.00 Fair CLR 63.5 51.8 66% 29.97 0.0
08 22:40 W 7 10.00 Fair CLR 64.4 51.8 64% 29.97 0.0
08 22:20 W 9 10.00 Fair CLR 66.2 51.8 60% 29.97 0.0
08 22:00 SW 5 10.00 Fair CLR 67.5 51.8 57% 29.96 0.0
08 21:40 SW 6 10.00 Fair CLR 68.2 51.8 56% 29.96 0.0
08 20:55 SW 8 10.00 Fair CLR 71.6 51.8 50% 29.94 0.0
08 19:55 SW 10 10.00 Fair CLR 75.2 50 41% 78 29.92 0.0
08 18:55 W 9 10.00 Fair CLR 80.6 48.2 32% 80 29.91 0.0
08 17:54 W 10 0.00 Fair CLR 84.2 48.2 29% 82 29.9 0.0
08 16:55 SW 10 G 17 10.00 Fair CLR 86 46.4 25% 83 29.9 0.0
08 15:50 SW 6 10.00 Fair CLR 87.8 46.4 24% 85 29.91 0.0
08 14:55 W 8 10.00 Fair CLR 86 46.4 25% 83 29.93 0.0
08 13:52 W 5 7.00 Fair CLR 84.2 48.2 29% 82 29.95 0.0
08 12:55 SW 3 10.00 Fair CLR 80.6 50 34% 80 29.97 0.0
08 11:56 Calm 5.00 Fair with Haze CLR 77 50 39% 78 29.99 0.0
08 11:55 Calm 10.00 Fair CLR 75.2 50 41% 78 30 0.0
08 10:55 NW 3 4.00 Fair CLR 71.6 51.8 50% 30.01 0.0
08 09:52 Calm 4.00 Fair with Haze CLR 68 51.8 56% 30.01 0.0
08 08:55 Calm 3.00 Partly Cloudy SCT008 SCT021 60.8 51.8 72% 30.03 0.0
08 07:55 W 3 3.00 Overcast OVC010 59 50 72% 30.03 0.0
08 06:55 Calm 6.00 Fair CLR 55.4 50 82% 30.02 0.0
08 05:40 Calm 10.00 Fair CLR 55.6 49.5 80% 30.01 0.0
08 05:20 W 3 10.00 Fair CLR 55.8 49.6 80% 30 0.0
08 05:00 W 5 10.00 Fair CLR 55.4 49.1 79% 30 0.0
08 04:40 W 6 10.00 Fair CLR 55.8 48.7 77% 30 0.0
08 04:20 Calm 10.00 Fair CLR 57.7 49.1 73% 30 0.0
08 04:00 Calm 10.00 Fair CLR 57.9 49.3 73% 29.99 0.0
08 03:40 W 3 10.00 Fair CLR 58.1 49.6 74% 30 0.0
08 03:20 Calm 10.00 Fair CLR 58.5 50 74% 30 0.0
08 03:01 Calm 10.00 Fair CLR 58.3 49.8 74% 30 0.0
08 02:40 W 5 10.00 Fair CLR 58.1 49.5 73% 30 0.0
08 02:20 W 3 10.00 Fair CLR 59.2 50 72% 30 0.0
08 02:00 W 3 10.00 Fair CLR 59.9 50 70% 30 0.0
08 01:40 W 3 10.00 Fair CLR 60.4 50.2 69% 30 0.0
08 01:20 W 5 10.00 Fair CLR 61.2 50.2 67% 30.01 0.0
08 01:00 W 3 10.00 Fair CLR 61.2 50.4 68% 30.02 0.0
08 00:40 W 3 10.00 Fair CLR 60.8 50 68% 30.02 0.0
08 00:20 W 5 10.00 Fair CLR 61.3 50.4 67% 30.02 0.0
08 00:00 W 6 10.00 Fair CLR 62.4 50.4 65% 30.02 0.0
07 23:40 W 6 10.00 Fair CLR 63 50.9 65% 30.02 0.0
07 23:20 W 6 10.00 Fair CLR 63.9 50.9 63% 30.01 0.0
07 23:02 W 7 10.00 Fair CLR 64.6 50.9 61% 30.01 0.0
07 22:40 W 6 10.00 Fair CLR 65.3 50.9 60% 30.01 0.0
07 22:20 SW 7 10.00 Fair CLR 66.6 51.1 58% 30.01 0.0
07 22:00 SW 6 10.00 Fair CLR 66.9 51.1 57% 30 0.0
07 21:40 W 6 10.00 Fair CLR 67.5 51.3 56% 30 0.0
07 20:50 W 8 10.00 Fair CLR 69.8 51.8 53% 29.99 0.0
07 19:52 SW 7 10.00 Fair CLR 73.4 50 44% 29.95 0.0
07 18:51 SW 12 10.00 Fair CLR 77 48.2 36% 78 29.94 0.0
07 17:55 SW 9 10.00 Fair CLR 80.6 48.2 32% 80 29.92 0.0
07 16:51 W 14 G 17 10.00 Fair CLR 84.2 50 31% 82 29.93 0.0
07 15:51 SW 8 10.00 Fair CLR 86 44.6 24% 83 29.92 0.0
07 14:55 NW 5 10.00 Fair CLR 86 44.6 24% 83 29.94 0.0
07 13:53 Calm 10.00 Fair CLR 84.2 42.8 23% 82 29.96 0.0
07 12:55 NW 3 10.00 Fair CLR 82.4 46.4 28% 81 29.97 0.0
07 11:51 Calm 10.00 Fair CLR 77 44.6 32% 78 30 0.0
07 10:52 Calm 10.00 Fair CLR 73.4 46.4 38% 30.01 0.0
07 09:55 Calm 10.00 Fair CLR 69.8 46.4 43% 30.02 0.0
07 08:55 Calm 10.00 Fair CLR 66.2 46.4 49% 30.03 0.0
07 07:54 Calm 10.00 Fair CLR 60.8 46.4 59% 30.03 0.0
07 07:00 Calm 10.00 Fair CLR 55.4 46.4 72% 30.02 0.0
07 05:40 Calm 10.00 Fair CLR 53.6 45 73% 30.01 0.0
07 05:20 Calm 10.00 Fair CLR 54 45.7 74% 30.01 0.0
07 05:00 Calm 10.00 Fair CLR 54.1 45.7 73% 30.01 0.0
07 04:40 Calm 10.00 Fair CLR 54.9 45.9 72% 30.02 0.0
07 04:20 Calm 10.00 Fair CLR 55.4 46.4 72% 30.02 0.0
07 04:00 Calm 10.00 Fair CLR 55.6 46.6 72% 30.02 0.0
07 03:40 Calm 10.00 Fair CLR 56.1 46.8 71% 30.03 0.0
07 03:20 Calm 10.00 Fair CLR 55.6 46.4 71% 30.03 0.0
07 03:00 Calm 10.00 Fair CLR 56.7 47.1 71% 30.03 0.0
07 02:40 Calm 10.00 Fair CLR 56.8 46.9 70% 30.03 0.0
07 02:20 Calm 10.00 Fair CLR 57.7 47.5 69% 30.04 0.0
07 02:00 Calm 10.00 Fair CLR 58.3 47.1 67% 30.05 0.0
07 01:41 Calm 10.00 Fair CLR 59.4 48 66% 30.05 0.0
07 01:20 Calm 10.00 Fair CLR 60.1 47.7 64% 30.05 0.0
07 01:00 Calm 10.00 Fair CLR 60.8 46.9 60% 30.05 0.0
07 00:40 Calm 10.00 Fair CLR 61.2 46.9 60% 30.05 0.0
07 00:20 Calm 10.00 Fair CLR 61.2 47.1 60% 30.06 0.0
07 00:00 W 6 10.00 Fair CLR 60.8 47.1 61% 30.06 0.0
06 23:40 Calm 10.00 Fair CLR 62.1 47.3 59% 30.06 0.0
06 23:20 W 3 10.00 Fair CLR 61.9 46.9 58% 30.06 0.0
06 23:00 Calm 10.00 Fair CLR 63.3 47.3 56% 30.06 0.0
06 22:40 Calm 10.00 Fair CLR 63.3 47.3 56% 30.06 0.0
06 22:20 Calm 10.00 Fair CLR 63.9 47.3 55% 30.06 0.0
06 22:00 SW 5 10.00 Fair CLR 64.2 47.3 54% 30.06 0.0
06 21:40 SW 6 10.00 Fair CLR 64.6 47.3 54% 30.05 0.0
06 20:50 W 7 10.00 Fair CLR 66.2 46.4 49% 30.04 0.0
06 19:50 W 9 10.00 Fair CLR 69.8 46.4 43% 30.01 0.0
06 18:51 W 12 10.00 Fair CLR 75.2 46.4 36% 77 29.99 0.0
06 17:54 NW 3 10.00 Fair CLR 77 42.8 30% 78 29.98 0.0
06 16:51 W 7 10.00 Fair CLR 78.8 42.8 28% 78 29.98 0.0
06 15:51 SW 7 10.00 Fair CLR 77 41 28% 78 29.99 0.0
06 14:55 SW 3 10.00 Fair CLR 77 41 28% 78 30 0.0
06 13:51 NW 3 10.00 Fair CLR 73.4 41 31% 30.03 0.0
Date Time (pdt) Wind (mph) Vis. (mi.) Weather Sky Cond. Air Dwpt Max. Min. Relative Humidity Wind Chill (°F) Heat Index (°F) altimeter (in) sea level (mb) 1 hr 3 hr 6 hr
6 hour
Temperature (ºF) Pressure Precipitation (in)